DW3800 Weather Reports


time (UTC)temp
C
wind
direction
speed
KPH
gust
KPH
rain 1hr
cm
rain 24hr
cm
rain mn
cm
humidity
%
barometer
mb
20260904232635 28 330 4.8 8.0 0.00 0.00 0.00 75 1016.4
20260904232131 28 317 1.6 9.7 0.00 0.00 0.00 75 1016.2
20260904231626 28 152 1.6 4.8 0.00 0.00 0.00 75 1016.3
20260904231121 28 187 3.2 3.2 0.00 0.00 0.00 75 1016.1
20260904230621 28 248 4.8 9.7 0.00 0.00 0.00 75 1016.2
20260904230116 28 214 0.0 8.0 0.00 0.00 0.00 75 1016.3
20260904225613 28 19 3.2 4.8 0.00 0.00 0.00 75 1016.0
20260904225108 28 261 3.2 4.8 0.00 0.00 0.00 75 1016.0
20260904224603 28 91 3.2 11.3 0.00 0.00 0.00 75 1016.0
20260904224058 28 134 1.6 8.0 0.00 0.00 0.00 76 1015.9
20260904223557 29 126 1.6 4.8 0.00 0.00 0.00 76 1015.9
20260904223053 28 335 4.8 9.7 0.00 0.00 0.00 76 1016.1
20260904222549 29 257 3.2 8.0 0.00 0.00 0.00 75 1016.0
20260904222044 29 152 1.6 8.0 0.00 0.00 0.00 75 1015.7
20260904221538 29 227 4.8 8.0 0.00 0.00 0.00 74 1015.8
20260904221033 29 124 0.0 3.2 0.00 0.00 0.00 75 1015.5
20260904220533 29 110 1.6 9.7 0.00 0.00 0.00 76 1015.6
20260904220029 30 234 0.0 1.6 0.00 0.00 0.00 76 1015.5
20260904215528 30 275 3.2 4.8 0.00 0.00 0.00 74 1015.4
20260904215024 30 187 1.6 4.8 0.00 0.00 0.00 74 1015.6
20260904214520 30 85 3.2 8.0 0.00 0.00 0.00 74 1015.7
20260904214015 30 311 1.6 11.3 0.00 0.00 0.00 74 1015.4
20260904213512 30 215 1.6 4.8 0.00 0.00 0.00 74 1015.2
20260904213009 29 201 0.0 3.2 0.00 0.00 0.00 75 1015.5
20260904212503 29 109 0.0 8.0 0.00 0.00 0.00 74 1015.5
20260904211958 30 338 4.8 4.8 0.00 0.00 0.00 72 1015.5
20260904211452 30 318 4.8 8.0 0.00 0.00 0.00 74 1015.5
20260904210948 30 221 1.6 3.2 0.00 0.00 0.00 73 1015.5
20260904210447 30 135 1.6 9.7 0.00 0.00 0.00 75 1015.6
20260904205943 29 248 1.6 9.7 0.00 0.00 0.00 75 1015.6
20260904205438 29 217 3.2 8.0 0.00 0.00 0.00 75 1015.6
20260904204936 29 194 3.2 8.0 0.00 0.00 0.00 75 1015.6
20260904204430 29 287 3.2 4.8 0.00 0.00 0.00 76 1015.7
20260904203927 29 205 0.0 4.8 0.00 0.00 0.00 75 1015.7
20260904203423 28 217 1.6 4.8 0.00 0.00 0.00 76 1015.6
20260904202919 29 26 1.6 4.8 0.00 0.00 0.00 76 1015.5
20260904202415 29 214 1.6 3.2 0.00 0.00 0.00 76 1015.6
20260904201911 29 258 3.2 4.8 0.00 0.00 0.00 75 1015.5
20260904201405 29 226 3.2 8.0 0.00 0.00 0.00 76 1015.7
20260904200901 29 148 1.6 3.2 0.00 0.00 0.00 76 1015.4
20260904200359 28 200 1.6 3.2 0.00 0.00 0.00 77 1015.6
20260904195854 28 200 4.8 9.7 0.00 0.00 0.00 77 1015.7
20260904195352 28 335 4.8 8.0 0.00 0.00 0.00 77 1015.7
20260904194847 29 198 4.8 8.0 0.00 0.00 0.00 76 1015.6
20260904194346 29 231 1.6 3.2 0.00 0.00 0.00 77 1015.4
20260904193842 28 24 3.2 8.0 0.00 0.00 0.00 78 1015.7
20260904193337 27 172 0.0 8.0 0.00 0.00 0.00 81 1015.6
20260904192832 28 45 1.6 3.2 0.00 0.00 0.00 79 1015.7
20260904192327 28 317 4.8 12.9 0.00 0.00 0.00 80 1015.8
20260904191824 28 270 6.4 8.0 0.00 0.00 0.00 79 1015.9
20260904191321 27 208 1.6 9.7 0.00 0.00 0.00 81 1016.0
20260904190817 28 268 6.4 8.0 0.00 0.00 0.00 79 1015.8
20260904190312 28 170 1.6 12.9 0.00 0.00 0.00 81 1015.9
20260904185809 27 201 1.6 11.3 0.00 0.00 0.00 81 1015.9
20260904185306 27 110 0.0 4.8 0.00 0.00 0.00 82 1015.7
20260904184803 27 348 1.6 8.0 0.00 0.00 0.00 82 1015.9
20260904184258 27 340 1.6 3.2 0.00 0.00 0.00 83 1015.6
20260904183753 27 105 1.6 3.2 0.00 0.00 0.00 83 1015.8
20260904183248 27 200 1.6 12.9 0.00 0.00 0.00 84 1015.7
20260904182743 27 212 0.0 4.8 0.00 0.00 0.00 84 1015.7
20260904182238 27 179 3.2 9.7 0.00 0.00 0.00 84 1016.0
20260904181734 27 219 4.8 4.8 0.00 0.00 0.00 84 1015.9
20260904181234 27 276 6.4 11.3 0.00 0.00 0.00 83 1015.8
20260904180729 27 313 4.8 8.0 0.00 0.00 0.00 83 1015.7
20260904180224 27 31 4.8 4.8 0.00 0.00 0.00 83 1015.7
20260904175723 27 343 1.6 12.9 0.00 0.00 0.00 83 1015.7
20260904175222 28 351 4.8 8.0 0.00 0.00 0.00 81 1015.6
20260904174717 27 51 3.2 8.0 0.00 0.00 0.00 83 1015.5
20260904174213 27 312 3.2 8.0 0.00 0.00 0.00 83 1015.5
20260904173709 27 113 0.0 11.3 0.00 0.00 0.00 84 1015.2
20260904173203 27 192 6.4 11.3 0.00 0.00 0.00 83 1015.4
20260904172700 27 314 6.4 9.7 0.00 0.00 0.00 82 1015.2
20260904172159 27 190 4.8 9.7 0.00 0.00 0.00 82 1015.1
20260904171654 27 146 0.0 9.7 0.00 0.00 0.00 84 1015.2
20260904171149 27 342 11.3 14.5 0.00 0.00 0.00 83 1015.4
20260904170645 28 110 1.6 12.9 0.00 0.00 0.00 83 1015.1
20260904170141 28 250 1.6 9.7 0.00 0.00 0.00 82 1015.1
20260904165639 27 347 3.2 4.8 0.00 0.00 0.00 83 1015.4
20260904165134 27 327 4.8 4.8 0.00 0.00 0.00 83 1015.4
20260904164634 27 80 3.2 9.7 0.00 0.00 0.00 84 1015.2
20260904164129 28 73 1.6 3.2 0.00 0.00 0.00 82 1015.1
20260904163624 27 312 1.6 9.7 0.00 0.00 0.00 84 1015.0
20260904163119 27 207 4.8 8.0 0.00 0.00 0.00 84 1015.0
20260904162614 27 120 3.2 4.8 0.00 0.00 0.00 84 1015.0
20260904162109 27 337 1.6 8.0 0.00 0.00 0.00 84 1015.1
20260904161604 28 203 4.8 8.0 0.00 0.00 0.00 82 1015.0
20260904161059 28 236 4.8 9.7 0.00 0.00 0.00 82 1014.7
20260904160555 28 125 1.6 4.8 0.00 0.00 0.00 82 1014.7
20260904160050 28 121 0.0 3.2 0.00 0.00 0.00 81 1014.6
20260904155549 28 156 1.6 4.8 0.00 0.00 0.00 81 1014.7
20260904155044 28 105 0.0 8.0 0.00 0.00 0.00 80 1014.8
20260904154538 28 306 1.6 3.2 0.00 0.00 0.00 81 1014.5
20260904154033 28 134 1.6 9.7 0.00 0.00 0.00 82 1014.4
20260904153532 28 181 3.2 4.8 0.00 0.00 0.00 82 1014.5
20260904153029 28 170 6.4 8.0 0.00 0.00 0.00 82 1014.5
20260904152524 28 84 1.6 4.8 0.00 0.00 0.00 81 1014.6
20260904152020 28 101 0.0 1.6 0.00 0.00 0.00 81 1014.3
20260904151514 28 118 0.0 0.0 0.00 0.00 0.00 81 1014.4
20260904151014 28 89 0.0 3.2 0.00 0.00 0.00 83 1014.4
20260904150514 28 66 1.6 1.6 0.00 0.00 0.00 82 1013.9
20260904150009 28 95 0.0 3.2 0.00 0.00 0.00 83 1014.1
20260904145503 27 83 1.6 1.6 0.00 0.00 0.00 84 1013.8
20260904144958 27 100 1.6 3.2 0.00 0.00 0.00 85 1014.1
20260904144454 27 61 0.0 1.6 0.00 0.00 0.00 85 1014.1
20260904143950 26 83 0.0 1.6 0.00 0.00 0.00 87 1014.2
20260904143446 26 102 0.0 3.2 0.00 0.00 0.00 87 1014.1
20260904142943 26 105 0.0 1.6 0.00 0.00 0.00 88 1014.1
20260904142439 26 344 3.2 3.2 0.00 0.00 0.00 86 1014.1
20260904141938 26 91 0.0 3.2 0.00 0.00 0.00 87 1014.1
20260904141433 26 93 0.0 4.8 0.00 0.00 0.00 87 1014.0
20260904140931 26 86 0.0 0.0 0.00 0.00 0.00 88 1014.1
20260904140430 25 74 0.0 0.0 0.00 0.00 0.00 90 1014.2
20260904135929 25 14 0.0 1.6 0.00 0.00 0.00 90 1014.3
20260904135429 25 352 1.6 1.6 0.00 0.00 0.00 89 1014.2
20260904134925 26 20 3.2 3.2 0.00 0.00 0.00 88 1014.5
20260904134425 25 83 0.0 0.0 0.00 0.00 0.00 93 1014.1
20260904133920 24 92 0.0 1.6 0.00 0.00 0.00 95 1014.2
20260904133414 23 104 1.6 3.2 0.00 0.00 0.00 97 1014.3
20260904132910 23 95 0.0 1.6 0.00 0.00 0.00 99 1014.5
20260904132405 23 95 0.0 0.0 0.00 0.00 0.00 99 1014.2
20260904131905 23 72 0.0 0.0 0.00 0.00 0.00 99 1014.1
20260904131400 23 164 0.0 0.0 0.00 0.00 0.00 99 1014.1
20260904130855 22 89 0.0 0.0 0.00 0.00 0.00 99 1014.1
20260904130355 22 135 0.0 0.0 0.00 0.00 0.00 99 1013.9
20260904125850 22 103 0.0 0.0 0.00 0.00 0.00 99 1013.6
20260904125346 22 99 0.0 1.6 0.00 0.00 0.00 99 1014.0
20260904124844 22 113 0.0 0.0 0.00 0.00 0.00 99 1013.7
20260904124341 22 91 0.0 1.6 0.00 0.00 0.00 99 1013.6
20260904123837 22 104 0.0 1.6 0.00 0.00 0.00 99 1013.5
20260904123332 22 112 0.0 0.0 0.00 0.00 0.00 99 1013.6
20260904122827 22 61 0.0 1.6 0.00 0.00 0.00 99 1013.7
20260904122327 22 107 0.0 0.0 0.00 0.00 0.00 99 1013.6
20260904121822 22 108 0.0 0.0 0.00 0.00 0.00 99 1013.5
20260904121318 21 37 0.0 0.0 0.00 0.00 0.00 99 1013.6
20260904120814 21 103 0.0 0.0 0.00 0.00 0.00 99 1013.5
20260904120310 21 110 0.0 0.0 0.00 0.00 0.00 99 1013.3
20260904115804 22 99 0.0 0.0 0.00 0.00 0.00 99 1013.4
20260904115300 22 320 0.0 0.0 0.00 0.00 0.00 99 1013.4
20260904114754 22 101 0.0 3.2 0.00 0.00 0.00 99 1013.3
20260904114254 22 109 0.0 0.0 0.00 0.00 0.00 99 1013.1
20260904113750 22 334 1.6 1.6 0.00 0.00 0.00 99 1013.2
20260904113248 22 116 0.0 0.0 0.00 0.00 0.00 99 1013.1
20260904112743 22 347 1.6 1.6 0.00 0.00 0.00 99 1013.3
20260904112239 22 106 0.0 0.0 0.00 0.00 0.00 99 1012.9
20260904111735 22 77 0.0 1.6 0.00 0.00 0.00 99 1013.0
20260904111230 22 107 0.0 1.6 0.00 0.00 0.00 99 1012.9
20260904110726 22 99 0.0 0.0 0.00 0.00 0.00 99 1013.1
20260904110225 22 103 0.0 0.0 0.00 0.00 0.00 99 1013.0
20260904105720 22 107 0.0 0.0 0.00 0.00 0.00 99 1013.0
20260904105215 22 99 0.0 0.0 0.00 0.00 0.00 99 1013.0
20260904104710 22 100 0.0 0.0 0.00 0.00 0.00 99 1012.8
20260904104206 22 119 0.0 0.0 0.00 0.00 0.00 99 1013.0
20260904103703 22 107 0.0 0.0 0.00 0.00 0.00 99 1013.1
20260904103157 22 33 1.6 1.6 0.00 0.00 0.00 99 1013.1
20260904102653 22 120 0.0 1.6 0.00 0.00 0.00 99 1013.1
20260904102148 22 310 1.6 4.8 0.00 0.00 0.00 99 1013.3
20260904101645 22 75 0.0 0.0 0.00 0.00 0.00 99 1013.2
20260904101140 22 103 0.0 0.0 0.00 0.00 0.00 99 1013.2
20260904100636 22 310 0.0 3.2 0.00 0.00 0.00 99 1013.3
20260904100131 22 354 1.6 3.2 0.00 0.00 0.00 99 1013.0
20260904095626 22 98 0.0 0.0 0.00 0.00 0.00 99 1012.9
20260904095126 22 100 0.0 0.0 0.00 0.00 0.00 99 1013.0
20260904094620 22 93 0.0 0.0 0.00 0.00 0.00 99 1012.9
20260904094115 22 100 0.0 0.0 0.00 0.00 0.00 99 1012.7
20260904093612 22 94 0.0 0.0 0.00 0.00 0.00 99 1013.0
20260904093107 22 99 0.0 0.0 0.00 0.00 0.00 99 1013.0
20260904092603 22 92 0.0 0.0 0.00 0.00 0.00 99 1013.0
20260904092059 22 103 0.0 0.0 0.00 0.00 0.00 99 1012.7
20260904091555 22 103 0.0 0.0 0.00 0.00 0.00 99 1012.7
20260904091054 22 95 0.0 0.0 0.00 0.00 0.00 99 1012.6
20260904090550 22 95 0.0 0.0 0.00 0.00 0.00 99 1012.6
20260904090045 22 97 0.0 0.0 0.00 0.00 0.00 99 1012.7
20260904085540 22 95 0.0 0.0 0.00 0.00 0.00 99 1012.6
20260904085039 22 95 0.0 0.0 0.00 0.00 0.00 99 1012.6
20260904084536 22 67 0.0 0.0 0.00 0.00 0.00 99 1012.6
20260904084032 22 101 0.0 0.0 0.00 0.00 0.00 98 1012.5
20260904083527 22 91 0.0 0.0 0.00 0.00 0.00 98 1012.3
20260904083023 22 93 0.0 0.0 0.00 0.00 0.00 98 1012.5
20260904082518 22 91 0.0 0.0 0.00 0.00 0.00 98 1012.6
20260904082013 23 77 0.0 0.0 0.00 0.00 0.00 98 1012.5
20260904081509 23 83 0.0 1.6 0.00 0.00 0.00 98 1012.5
20260904081004 23 95 0.0 0.0 0.00 0.00 0.00 98 1012.5
20260904080459 23 95 0.0 0.0 0.00 0.00 0.00 98 1012.5
20260904075955 23 95 0.0 0.0 0.00 0.00 0.00 97 1012.5
20260904075451 23 100 0.0 0.0 0.00 0.00 0.00 97 1012.4
20260904074950 23 100 0.0 0.0 0.00 0.00 0.00 97 1012.6
20260904074445 23 93 0.0 0.0 0.00 0.00 0.00 97 1012.4
20260904073940 23 97 0.0 0.0 0.00 0.00 0.00 97 1012.4
20260904073436 23 87 0.0 0.0 0.00 0.00 0.00 96 1012.5
20260904072931 23 81 0.0 0.0 0.00 0.00 0.00 96 1012.6
20260904072427 23 96 0.0 0.0 0.00 0.00 0.00 96 1012.7
20260904071921 23 92 0.0 0.0 0.00 0.00 0.00 96 1012.5
20260904071417 23 100 0.0 0.0 0.00 0.00 0.00 96 1012.7
20260904070912 23 102 0.0 3.2 0.00 0.00 0.00 96 1012.7
20260904070411 23 104 0.0 0.0 0.00 0.00 0.00 96 1012.6
20260904065910 23 101 0.0 1.6 0.00 0.00 0.00 95 1012.6
20260904065407 23 100 0.0 0.0 0.00 0.00 0.00 95 1012.8
20260904064906 23 97 0.0 1.6 0.00 0.00 0.00 95 1012.6
20260904064403 23 89 0.0 4.8 0.00 0.00 0.00 95 1012.8
20260904063858 23 98 0.0 1.6 0.00 0.00 0.00 95 1012.8
20260904063355 23 101 1.6 3.2 0.00 0.00 0.00 95 1012.8
20260904062849 23 115 0.0 0.0 0.00 0.00 0.00 95 1012.7
20260904062345 23 122 0.0 1.6 0.00 0.00 0.00 95 1012.8
20260904061841 23 109 0.0 3.2 0.00 0.00 0.00 94 1012.6
20260904061337 23 106 0.0 1.6 0.00 0.00 0.00 94 1012.8
20260904060833 23 114 0.0 1.6 0.00 0.00 0.00 94 1012.7
20260904060329 23 104 0.0 0.0 0.00 0.00 0.00 94 1012.9
20260904055824 24 108 0.0 0.0 0.00 0.00 0.00 94 1012.8
20260904055319 24 106 0.0 1.6 0.00 0.00 0.00 93 1012.8
20260904054815 24 114 0.0 1.6 0.00 0.00 0.00 93 1012.7
20260904054310 24 104 0.0 0.0 0.00 0.00 0.00 93 1012.8
20260904053800 24 107 1.6 3.2 0.00 0.00 0.00 93 1012.7
20260904053300 24 99 0.0 1.6 0.00 0.00 0.00 92 1012.9
20260904052756 24 120 0.0 4.8 0.00 0.00 0.00 92 1012.9
20260904052252 24 111 1.6 3.2 0.00 0.00 0.00 92 1012.8
20260904051748 24 99 1.6 3.2 0.00 0.00 0.00 92 1012.5
20260904051243 24 161 1.6 8.0 0.00 0.00 0.00 92 1012.6
20260904050738 24 125 1.6 4.8 0.00 0.00 0.00 92 1012.5
20260904050235 25 88 0.0 9.7 0.00 0.00 0.00 91 1012.5
20260904045735 25 116 1.6 8.0 0.00 0.10 0.10 91 1012.6
20260904045230 25 95 4.8 4.8 0.00 0.10 0.10 91 1012.3
20260904044724 25 79 3.2 8.0 0.00 0.10 0.10 91 1012.8
20260904044221 25 127 0.0 3.2 0.00 0.10 0.10 91 1012.5
20260904043717 25 70 1.6 8.0 0.00 0.10 0.10 91 1012.5
20260904043213 25 152 3.2 9.7 0.00 0.10 0.10 91 1012.6
20260904042708 25 112 0.0 8.0 0.00 0.10 0.10 91 1012.6
20260904042205 25 90 0.0 4.8 0.00 0.10 0.10 90 1012.5
20260904041658 25 106 0.0 9.7 0.00 0.10 0.10 90 1012.4
20260904041155 25 86 1.6 1.6 0.00 0.10 0.10 90 1012.7
20260904040651 25 109 0.0 4.8 0.00 0.10 0.10 90 1012.6
20260904040146 25 93 0.0 8.0 0.00 0.10 0.10 90 1012.5
20260904035642 25 82 1.6 3.2 0.00 0.10 0.10 90 1012.4
20260904035137 25 165 1.6 4.8 0.00 0.10 0.10 90 1012.6
20260904034636 25 124 1.6 4.8 0.00 0.10 0.10 90 1012.5
20260904034132 25 121 1.6 3.2 0.00 0.10 0.10 90 1012.7
20260904033627 25 102 0.0 4.8 0.00 0.10 0.10 90 1012.6
20260904033125 25 116 3.2 4.8 0.00 0.10 0.10 89 1012.5
20260904032620 25 99 3.2 4.8 0.00 0.10 0.10 89 1012.3
20260904032119 25 99 0.0 3.2 0.00 0.10 0.10 89 1012.7
20260904031618 25 117 0.0 3.2 0.00 0.10 0.10 89 1012.6
20260904031114 25 116 0.0 9.7 0.00 0.10 0.10 89 1012.7
20260904030610 25 125 1.6 4.8 0.00 0.10 0.10 88 1012.8
20260904030105 25 53 1.6 3.2 0.00 0.10 0.10 88 1012.8
20260904025601 25 113 0.0 4.8 0.00 0.10 0.10 87 1012.9
20260904025056 25 45 0.0 1.6 0.00 0.10 0.10 87 1013.0
20260904024551 25 265 0.0 11.3 0.00 0.10 0.10 87 1012.7
20260904024047 25 104 0.0 3.2 0.00 0.10 0.10 86 1012.8
20260904023543 25 87 1.6 3.2 0.00 0.10 0.10 86 1013.0
20260904023039 25 35 3.2 3.2 0.00 0.10 0.10 86 1012.7
20260904022539 25 97 0.0 3.2 0.00 0.10 0.10 85 1012.8
20260904022036 25 72 1.6 1.6 0.00 0.10 0.10 85 1012.6
20260904021531 25 108 1.6 4.8 0.00 0.10 0.10 84 1012.9
20260904021026 25 85 0.0 4.8 0.00 0.10 0.10 84 1012.8
20260904020526 26 103 0.0 1.6 0.00 0.10 0.10 83 1012.5
20260904020021 26 101 0.0 1.6 0.00 0.10 0.10 83 1012.5
20260904015515 26 84 3.2 3.2 0.00 0.10 0.10 82 1012.5
20260904015014 26 88 0.0 3.2 0.00 0.10 0.10 82 1012.8
20260904014509 26 80 0.0 3.2 0.00 0.10 0.10 81 1012.7
20260904014004 26 100 0.0 1.6 0.00 0.10 0.10 81 1012.6
20260904013501 26 92 0.0 3.2 0.00 0.10 0.10 81 1012.4
20260904012957 26 110 0.0 9.7 0.00 0.10 0.10 80 1012.6
20260904012456 26 91 1.6 4.8 0.00 0.10 0.10 80 1012.3
20260904011950 26 114 0.0 4.8 0.00 0.10 0.10 79 1012.3
20260904011445 26 101 1.6 4.8 0.00 0.10 0.10 79 1012.3
20260904010941 26 89 0.0 8.0 0.00 0.10 0.10 79 1012.2
20260904010437 26 179 3.2 3.2 0.00 0.10 0.10 78 1012.0
20260904005931 26 118 0.0 8.0 0.00 0.10 0.10 78 1012.0
20260904005422 27 112 0.0 4.8 0.00 0.10 0.10 77 1012.0
20260904004921 27 168 3.2 4.8 0.00 0.10 0.10 77 1012.0
20260904004419 27 129 6.4 9.7 0.00 0.10 0.10 77 1012.0
20260904003919 27 111 0.0 9.7 0.00 0.10 0.10 76 1012.2
20260904003414 27 199 1.6 11.3 0.00 0.10 0.10 75 1012.0
20260904002909 27 154 0.0 11.3 0.00 0.10 0.10 75 1012.2
20260904002406 27 110 0.0 12.9 0.00 0.10 0.10 74 1012.0
20260904001904 27 120 0.0 1.6 0.00 0.10 0.10 74 1012.2
20260904001401 28 142 6.4 9.7 0.00 0.10 0.10 73 1012.1
20260904000855 28 123 1.6 12.9 0.00 0.10 0.10 73 1012.2
20260904000355 28 106 4.8 11.3 0.00 0.10 0.10 73 1012.2
20260903235855 28 99 1.6 9.7 0.00 0.10 0.10 73 1012.2
20260903235351 28 152 6.4 11.3 0.00 0.10 0.10 72 1012.2
20260903234850 28 136 0.0 12.9 0.00 0.10 0.10 72 1011.8
20260903234346 28 75 4.8 11.3 0.00 0.10 0.10 71 1012.2
20260903233842 28 123 3.2 9.7 0.00 0.10 0.10 71 1011.8
20260903233338 28 146 3.2 3.2 0.00 0.10 0.10 71 1011.7
20260903232837 28 124 1.6 3.2 0.00 0.10 0.10 72 1011.6